TimeEET,TemperatureF,Dew PointF,Humidity,Sea Level PressureIn,VisibilityMPH,Wind Direction,Wind SpeedMPH,Gust SpeedMPH,PrecipitationIn,Events,Conditions,WindDirDegrees,DateUTC
12:20 AM,6.8,6.8,100,30.09,-9999.0,Variable,2.3,-,N/A,,Partly Cloudy,0,2013-02-12 22:20:00
12:50 AM,3.2,3.2,100,30.12,2.2,Variable,2.3,-,N/A,,Partly Cloudy,0,2013-02-12 22:50:00
1:20 AM,1.4,-0.4,92,30.12,2.2,Variable,1.2,-,N/A,,Partly Cloudy,0,2013-02-12 23:20:00
1:50 AM,1.4,1.4,100,30.12,2.2,Variable,1.2,-,N/A,,Partly Cloudy,0,2013-02-12 23:50:00
2:00 AM,3,1,87,,2,SSE,1.2,,,,Mist,150,2013-02-13 00:00:00
2:20 AM,1.4,-0.4,92,30.12,2.2,Calm,Calm,-,N/A,,Partly Cloudy,0,2013-02-13 00:20:00
2:50 AM,1.4,-0.4,92,30.12,2.2,Variable,1.2,-,N/A,,Partly Cloudy,0,2013-02-13 00:50:00
3:20 AM,-0.4,-2.2,92,30.12,2.2,Calm,Calm,-,N/A,,Partly Cloudy,0,2013-02-13 01:20:00
3:50 AM,-2.2,-4.0,92,30.15,2.2,Variable,1.2,-,N/A,,Partly Cloudy,0,2013-02-13 01:50:00
4:20 AM,-2.2,-4.0,92,30.15,2.2,Calm,Calm,-,N/A,,Partly Cloudy,0,2013-02-13 02:20:00
4:50 AM,-2.2,-5.8,85,30.15,2.2,Variable,1.2,-,N/A,,Partly Cloudy,0,2013-02-13 02:50:00
5:20 AM,-4.0,-5.8,92,30.15,0.6,NE,2.3,-,N/A,,Partly Cloudy,50,2013-02-13 03:20:00
5:50 AM,-2.2,-5.8,85,30.18,0.4,Calm,Calm,-,N/A,,Partly Cloudy,0,2013-02-13 03:50:00
6:20 AM,-4.0,-5.8,92,30.18,0.1,Calm,Calm,-,N/A,Fog,Light Freezing Fog,0,2013-02-13 04:20:00
6:50 AM,-4.0,-5.8,92,30.21,0.2,West,2.3,-,N/A,Fog,Light Freezing Fog,260,2013-02-13 04:50:00
7:20 AM,1.4,-0.4,92,30.21,0.4,SW,2.3,-,N/A,Fog,Patches of Fog,230,2013-02-13 05:20:00
7:50 AM,3.2,3.2,100,30.21,0.7,Variable,1.2,-,N/A,Fog,Patches of Fog,0,2013-02-13 05:50:00
8:00 AM,4,3,93,,1,South,1.2,,,Fog,Patches of Fog,190,2013-02-13 06:00:00
8:20 AM,1.4,-2.2,85,30.21,0.7,ENE,2.3,-,N/A,Fog,Patches of Fog,60,2013-02-13 06:20:00
8:50 AM,3.2,1.4,92,30.24,0.2,ENE,1.2,-,N/A,Fog,Patches of Fog,60,2013-02-13 06:50:00
9:20 AM,5.0,3.2,92,30.24,-9999.0,Variable,2.3,-,N/A,Fog,Patches of Fog,0,2013-02-13 07:20:00
9:50 AM,12.2,12.2,100,30.24,0.9,Calm,Calm,-,N/A,Fog,Patches of Fog,0,2013-02-13 07:50:00
10:20 AM,10.4,8.6,92,30.24,2.2,ESE,2.3,-,N/A,,Mist,120,2013-02-13 08:20:00
10:50 AM,12.2,12.2,100,30.24,3.7,Calm,Calm,-,N/A,,Unknown,0,2013-02-13 08:50:00
11:20 AM,14.0,12.2,93,30.24,3.7,Calm,Calm,-,N/A,,Unknown,0,2013-02-13 09:20:00
11:50 AM,15.8,14.0,93,30.21,3.7,West,3.5,-,N/A,,Unknown,260,2013-02-13 09:50:00
12:20 PM,17.6,17.6,100,30.21,3.7,West,3.5,-,N/A,,Unknown,280,2013-02-13 10:20:00
12:50 PM,19.4,17.6,93,30.21,3.7,WSW,3.5,-,N/A,,Unknown,250,2013-02-13 10:50:00
1:20 PM,23.0,21.2,93,30.24,3.7,Variable,1.2,-,N/A,,Unknown,0,2013-02-13 11:20:00
1:50 PM,21.2,19.4,93,30.24,3.7,NE,3.5,-,N/A,,Unknown,40,2013-02-13 11:50:00
2:00 PM,21,20,95,,4,NE,3.5,,,,Mist,40,2013-02-13 12:00:00
2:20 PM,21.2,17.6,86,30.24,3.7,ENE,3.5,-,N/A,,Unknown,70,2013-02-13 12:20:00
2:50 PM,19.4,15.8,86,30.24,3.7,ENE,3.5,-,N/A,,Unknown,70,2013-02-13 12:50:00
3:20 PM,19.4,15.8,86,30.24,3.7,East,3.5,-,N/A,,Unknown,80,2013-02-13 13:20:00
3:50 PM,19.4,14.0,80,30.24,3.7,Variable,2.3,-,N/A,,Unknown,0,2013-02-13 13:50:00
4:20 PM,14.0,10.4,86,30.24,3.7,Calm,Calm,-,N/A,,Unknown,0,2013-02-13 14:20:00
4:50 PM,12.2,8.6,85,30.24,2.5,Calm,Calm,-,N/A,,Mist,0,2013-02-13 14:50:00
5:20 PM,14.0,12.2,93,30.24,2.5,Variable,2.3,-,N/A,,Mist,0,2013-02-13 15:20:00
5:50 PM,8.6,6.8,92,30.24,2.5,West,3.5,-,N/A,,Mist,260,2013-02-13 15:50:00
6:20 PM,8.6,6.8,92,30.24,2.5,West,4.6,-,N/A,,Mist,270,2013-02-13 16:20:00
6:50 PM,6.8,5.0,92,30.27,2.5,Variable,2.3,-,N/A,,Mist,0,2013-02-13 16:50:00
7:20 PM,-0.4,-2.2,92,30.27,0.2,Variable,2.3,-,N/A,Fog,Light Freezing Fog,0,2013-02-13 17:20:00
7:50 PM,-0.4,-2.2,92,30.27,0.2,Variable,1.2,-,N/A,Fog,Light Freezing Fog,0,2013-02-13 17:50:00
8:00 PM,0,0,100,,0,ESE,1.2,,,Fog,Fog,110,2013-02-13 18:00:00
8:20 PM,1.4,-0.4,92,30.27,0.2,Calm,Calm,-,N/A,Fog,Light Freezing Fog,0,2013-02-13 18:20:00
8:50 PM,-0.4,-2.2,92,30.27,0.2,Calm,Calm,-,N/A,Fog,Light Freezing Fog,0,2013-02-13 18:50:00
9:20 PM,1.4,-0.4,92,30.27,0.2,Variable,1.2,-,N/A,Fog,Light Freezing Fog,0,2013-02-13 19:20:00
9:50 PM,1.4,-0.4,92,30.27,0.2,NNW,2.3,-,N/A,Fog,Light Freezing Fog,330,2013-02-13 19:50:00
10:20 PM,1.4,-2.2,85,30.27,0.2,Variable,1.2,-,N/A,Fog,Light Freezing Fog,0,2013-02-13 20:20:00
10:50 PM,-0.4,-4.0,85,30.27,0.2,Calm,Calm,-,N/A,Fog,Light Freezing Fog,0,2013-02-13 20:50:00
11:20 PM,-2.2,-5.8,85,30.27,0.2,SSE,1.2,-,N/A,Fog,Light Freezing Fog,150,2013-02-13 21:20:00
11:50 PM,-4.0,-7.6,85,30.27,0.2,ESE,1.2,-,N/A,Fog,Light Freezing Fog,110,2013-02-13 21:50:00